#timestamp,LO_Frequency,Hit,StdDev 
1549994415.7,286046998.2,N
1549994435.5,286046999.1,N
1549994455.4,286046997.1,N
1549994475.2,286046997.1,N
1549994495.1,286046999.6,N
1549994496.0,286046999.6,N
1549994515.8,286046996.8,N
1549994535.6,286047002.2,N
1549994555.5,286047003.2,N
1549994575.3,286047004.5,N
1549994595.1,286047007.5,N
1549994615.9,286047007.0,N
1549994635.7,286047008.8,N
1549994655.6,286047010.3,N
1549994675.4,286047010.4,N
1549994695.2,286047007.7,N
1549994715.1,286047009.1,N
1549994716.0,286047009.1,N
1549994735.8,286047008.8,N
1549994755.6,286047005.3,N
1549994775.5,286047006.4,N
1549994795.3,286047008.5,N
1549994815.2,286047010.4,N
1549994835.9,286047015.2,N
1549994855.7,286047017.1,Y
1549994875.6,286047013.5,P
1549994895.4,286047010.9,N
1549994915.3,286047014.6,P
1549994935.1,286047014.5,Y
1549994936.0,286047014.5,P
1549994955.8,286047003.8,N
1549994975.7,286047004.1,N
1549994995.5,286047003.8,N
1549995015.4,286047001.8,N
1549995035.2,286047000.4,N
1549995055.0,286046996.6,N
1549995055.9,286046996.6,N
1549995075.8,286046995.4,N
1549995095.6,286046993.3,N
1549995115.5,286046993.7,N
1549995135.3,286046993.4,N
1549995155.1,286046994.6,N
1549995175.9,286046991.7,N
1549995195.7,286046992.3,N
1549995215.5,286046990.8,N
1549995235.4,286046990.8,N
1549995255.2,286046991.1,N
1549995275.1,286046990.8,N
1549995276.0,286046990.8,N
1549995295.8,286046986.3,N
1549995315.6,286046991.8,N
1549995335.5,286046994.5,N
1549995355.3,286046995.9,N
1549995375.1,286046995.6,N
1549995395.9,286046997.3,N
1549995415.7,286046996.3,N
1549995465.6,286046994.6,E
1549995475.5,286046995.5,N
1549995495.3,286047001.2,P
1549995515.2,286046999.1,N
1549995535.0,286046996.6,N
1549995535.9,286046996.6,N
1549995555.7,286046997.7,N
1549995575.6,286046996.2,N
1549995595.4,286046995.5,N
1549995615.3,286046994.2,Y
1549995635.1,286046995.4,P
1549995636.0,286046995.4,P
1549995655.8,286046995.8,P
1549995675.7,286046996.2,Y
1549995695.5,286046999.2,P
1549995715.3,286046996.6,N
1549995735.2,286047000.6,N
1549995755.0,286046998.3,N
1549995755.9,286046998.3,N
1549995775.8,286046999.0,N
1549995795.6,286046996.8,N
1549995815.4,286046999.5,N
1549995835.3,286046997.3,N
1549995855.1,286046995.8,Y
1549995875.9,286046999.1,P
1549995895.7,286046998.9,N
1549995915.5,286046998.7,P
1549995935.4,286046999.2,N
1549995955.2,286046996.7,Y
1549995975.0,286046998.8,P
1549995975.9,286046998.8,P
1549995995.8,286046999.5,P
1549996015.6,286046999.5,N
1549996035.5,286046996.9,Y
1549996055.3,286046996.6,P
1549996075.1,286046995.3,P
1549996095.9,286046993.3,P
1549996115.7,286046996.2,N
1549996135.5,286046995.9,N
1549996155.4,286046996.4,N
1549996175.2,286046994.0,Y
1549996195.1,286046998.6,P
1549996196.0,286046998.6,N
1549996215.8,286046998.3,N
1549996235.6,286046999.4,N
1549996255.5,286046999.1,N
1549996275.3,286046999.0,N
1549996295.1,286046999.2,N
1549996315.9,286046999.1,N
1549996335.7,286046999.4,N
1549996355.6,286046996.5,Y
1549996375.4,286046998.7,P
1549996395.2,286046998.7,P
1549996415.1,286046998.8,P
1549996416.0,286046998.8,Y
1549996435.8,286046999.9,P
1549996455.7,286047000.5,N
1549996475.5,286046998.4,N
1549996495.3,286046998.9,N
1549996515.2,286046996.9,Y
1549996535.0,286046997.2,P
1549996535.9,286046997.2,N
1549996555.7,286046995.0,P
1549996575.6,286046996.3,N
1549996595.4,286046995.1,Y
1549996615.3,286047000.9,P
1549996635.1,286047001.0,N
1549996636.0,286047001.0,N
1549996655.8,286047001.0,N
1549996675.7,286047002.7,N
1549996695.5,286047000.0,N
1549996715.3,286047002.5,N
1549996735.2,286047002.3,N
1549996755.0,286047002.2,N
1549996755.9,286047002.2,N
1549996775.8,286047004.3,N
1549996795.6,286047003.2,N
1549996815.4,286047001.6,N
1549996835.3,286047001.8,N
1549996855.1,286047001.3,N
1549996875.8,286047004.4,N
1549996895.7,286047004.0,N
1549996915.5,286047001.7,N
1549996935.4,286047003.7,N
1549996955.2,286047004.3,N
1549996975.0,286047004.1,N
1549996975.9,286047004.1,N
1549996995.8,286047001.7,N
1549997015.6,286046999.7,N
1549997035.4,286046999.8,N
1549997055.3,286047002.4,N
1549997075.1,286047002.3,N
1549997095.9,286047002.6,N
1549997115.7,286047004.3,N
1549997135.5,286047002.2,N
1549997155.4,286047000.9,N
1549997175.2,286046998.1,N
1549997195.0,286046998.2,N
1549997195.9,286046998.2,N
1549997215.8,286047001.2,N
1549997235.6,286046999.3,N
1549997255.5,286046999.3,N
1549997275.3,286046998.9,N
1549997295.1,286047000.8,N
1549997315.9,286046998.1,N
1549997335.7,286046998.6,N
1549997355.5,286047000.1,N
1549997375.4,286047000.0,N
1549997395.2,286047004.0,N
1549997415.0,286047002.1,N
1549997416.0,286047002.1,N
1549997435.8,286047001.4,N
1549997455.6,286047002.2,N
1549997475.5,286047000.1,N
1549997495.3,286047001.4,N
1549997515.1,286047001.6,N
1549997535.9,286047001.5,N
1549997555.7,286047001.3,N
1549997575.6,286047004.3,N
1549997595.4,286047006.0,Y
1549997615.2,286047004.3,P
1549997635.1,286047002.1,N
1549997636.0,286047002.1,N
1549997655.8,286047002.1,N
1549997675.6,286047002.8,N
1549997695.5,286047002.6,N
1549997715.3,286047000.2,N
1549997735.2,286047000.2,N
1549997755.9,286047002.7,N
1549997775.7,286046999.7,N
1549997795.6,286047000.1,N
1549997815.4,286047002.3,N
1549997835.2,286046999.7,N
1549997855.1,286047004.4,Y
1549997856.0,286047004.4,P
1549997875.8,286047003.4,N
1549997895.7,286047004.3,P
1549997915.5,286047001.7,N
1549997935.3,286047001.6,N
1549997955.2,286047001.8,N
1549997975.9,286047004.0,Y
1549997995.7,286047001.1,P
